Regional Weather Roundup
Issued by NWS

Current Version | Previous Version | Text Only | Print | Product List | Glossary On
Versions: 1 2 3 4 5 6 7 8 9 10 11 12 13 14 15 16 17 18 19 20 21 22 23 24 25 26 27 28 29 30 31 32 33 34 35 36 37 38 39 40 41 42 43 44 45 46 47 48 49 50
188
ASUS44 KBMX 271710
RWRAL

ALABAMA REGIONAL WEATHER ROUNDUP
NATIONAL WEATHER SERVICE BIRMINGHAM AL
1200 PM CDT WED JUL 27 2016

NOTE: "FAIR" INDICATES FEW OR NO CLOUDS BELOW 12,000 FEET
WITH NO SIGNIFICANT WEATHER AND/OR OBSTRUCTIONS TO VISIBILITY.

THE REMARK "TC" DENOTES TEMPERATURE IN DEGREES CELSIUS.

ALZ001>011-014-016>018-020-271800-
NORTH ALABAMA

CITY           SKY/WX    TMP DP  RH WIND       PRES   REMARKS
MUSCLE SHOALS  PTSUNNY   87  73  62 VRB7      30.04S HX  94
HUNTSVILLE     CLOUDY    86  69  56 S6        30.04F HX  90
DECATUR        CLOUDY    84  73  69 SE6       30.05S HX  90
HALEYVILLE     CLOUDY    83  73  72 S10G16    30.07S
GADSDEN        PTSUNNY   84  75  74 VRB5        N/A  HX  92
$$

ALZ012-013-022-023-030>036-040>044-271800-
WEST CENTRAL ALABAMA

CITY           SKY/WX    TMP DP  RH WIND       PRES   REMARKS
TUSCALOOSA     CLOUDY    83  75  77 S8        30.04S HX  90
$$

ALZ015-024>027-033>036-040>044-271800-
CENTRAL ALABAMA

CITY           SKY/WX    TMP DP  RH WIND       PRES   REMARKS
BIRMINGHAM     PTSUNNY   83  73  72 SW8       30.09S
MONTGOMERY     MOSUNNY   88  71  57 S5        30.07F HX  94
SHELBY CO ARPT CLOUDY    83  73  72 S6        30.08S
MAXWELL AFB    PTSUNNY   85  74  68 NW6       30.06F HX  92
GREENVILLE     NOT AVBL
$$

ALZ019-021-028-029-037-038-045>048-271800-
EAST CENTRAL ALABAMA

CITY           SKY/WX    TMP DP  RH WIND       PRES   REMARKS
ANNISTON       CLOUDY    83  70  64 SW8       30.08F
ALEXANDER CITY PTSUNNY   82  76  83 SW7       30.09S
AUBURN         CLOUDY    83  71  67 SW10      30.11F
$$

ALZ051>064-271800-
SOUTHWEST ALABAMA

CITY           SKY/WX    TMP DP  RH WIND       PRES   REMARKS
MOBILE         PTSUNNY   85  74  69 S8        30.08F HX  92
BROOKLEY FIELD PTSUNNY   86  76  71 S5        30.09R HX  96
EVERGREEN      PTSUNNY   87  73  62 S9        30.07F HX  94
$$

ALZ049-050-065>069-271800-
SOUTHEAST ALABAMA

CITY           SKY/WX    TMP DP  RH WIND       PRES   REMARKS
DOTHAN         MOSUNNY   89  72  56 SW9       30.13S HX  96
OZARK          MOSUNNY   88  74  62 S8        30.09S HX  97
TROY           MOSUNNY   88  72  58 SW10      30.09F HX  94
EUFAULA        PTSUNNY   89  73  59 SW7       30.08F HX  97
$$




USA.gov is the U.S. government's official web portal to all federal, state and local government web resources and services.